Volver al catálogo

QIANFAN-14

ActivoComunicacionesPO
NORAD 60392·PAYLOAD·🇨🇳 China

Lanzado Aug 6, 2024 desde Taiyuan Satellite Launch Center

Loading…

Próximos Pases (próximas 24 horas)

TLE

ActualizadoSource: Space-Track

Época: Sep 14, 2026, 13:15 UTC

1 60392U 24140P   26257.55263747  .00000018  00000-0  95197-5 0  9997
2 60392  88.9639 270.6076 0018363 127.4508 232.8317 13.51018817104513

Sigue QIANFAN-14 en tiempo real con AllMySat

Download on the App Store